Weather History for PHKO - May, 2013

Change the Weather History Date:

Friday, May 10, 2013

  Actual Average Record
Temperature  
Mean Temperature 78 °F -  
Max Temperature 82 °F 80 °F 89 °F (1983)
Min Temperature 75 °F 70 °F 67 °F (1984)
Cooling Degree Days 14    
Growing Degree Days 28 (Base 50)    
Moisture  
Dew Point 70 °F    
Average Humidity 72    
Maximum Humidity 79    
Minimum Humidity 63    
Precipitation  
Precipitation 0.00 in - - ()
Sea Level Pressure  
Sea Level Pressure 30.04 in    
Wind  
Wind Speed 5 mph (South)    
Max Wind Speed 12 mph    
Max Gust Speed -    
Visibility 10 miles    
Events      
Averages and records for this station are not official NWS values.
T = Trace of Precipitation, MM = Missing Value Source: NWS Daily Summary

Daily Weather History Graph

Daily Weather History Graph

Search for Another Location

Airport or City:

Trip Planner

Search our weather history database for the weather conditions in past years. The results will help you decide how hot, cold, wet, or windy it might be!

Date:

Astronomy

May. 10, 2013 Rise Set
Actual Time 5:50 AM HST 6:50 PM HST
Civil Twilight 5:27 AM HST 7:14 PM HST
Nautical Twilight 4:59 AM HST 7:42 PM HST
Astronomical Twilight 4:31 AM HST 8:10 PM HST
Moon 6:24 AM HST (5/10) 7:46 PM HST (5/10)
Length of Visible Light 13h 47m
Length of Day
13h 00m
New Moon, 1% of the Moon is Illuminated
May 10
New Moon
May 17
First Quarter
May 24
Full
May 31
Last Quarter
Jun 8
New

Hourly Weather History & Observations

Time (HST) Temp. Heat Index Dew Point Humidity Pressure Visibility Wind Dir Wind Speed Gust Speed Precip Events Conditions
12:53 AM 78.1 °F - 68.0 °F 71% 30.05 in 10.0 mi SW 3.5 mph - N/A   Overcast
1:53 AM 77.0 °F - 68.0 °F 74% 30.03 in 10.0 mi Calm Calm - N/A   Overcast
2:53 AM 77.0 °F - 66.9 °F 71% 30.02 in 10.0 mi Calm Calm - N/A   Overcast
3:53 AM 77.0 °F - 68.0 °F 74% 30.01 in 10.0 mi Calm Calm - N/A   Overcast
4:53 AM 77.0 °F - 66.9 °F 71% 30.01 in 10.0 mi Calm Calm - N/A   Overcast
5:53 AM 75.0 °F - 66.9 °F 76% 30.03 in 10.0 mi Calm Calm - N/A   Clear
6:53 AM 75.9 °F - 66.0 °F 71% 30.04 in 10.0 mi Calm Calm - N/A   Overcast
7:53 AM 79.0 °F - 66.9 °F 66% 30.05 in 10.0 mi Variable 4.6 mph - N/A   Mostly Cloudy
8:53 AM 81.0 °F 83.8 °F 68.0 °F 65% 30.06 in 10.0 mi South 8.1 mph - N/A   Clear
9:53 AM 82.9 °F 86.5 °F 69.1 °F 63% 30.06 in 10.0 mi SSW 9.2 mph - N/A   Clear
10:53 AM 82.0 °F 86.3 °F 71.1 °F 69% 30.06 in 10.0 mi SW 9.2 mph - N/A   Clear
11:53 AM 82.0 °F 86.3 °F 71.1 °F 69% 30.06 in 10.0 mi WSW 9.2 mph - N/A   Mostly Cloudy
12:53 PM 82.9 °F 87.5 °F 71.1 °F 67% 30.04 in 10.0 mi SSW 9.2 mph - N/A   Mostly Cloudy
1:21 PM 82.4 °F 86.3 °F 69.8 °F 66% 30.03 in 10.0 mi SW 9.2 mph - N/A   Overcast
1:49 PM 82.4 °F 86.3 °F 69.8 °F 66% 30.03 in 10.0 mi WSW 8.1 mph - N/A   Mostly Cloudy
1:53 PM 82.9 °F 87.0 °F 70.0 °F 65% 30.03 in 10.0 mi WSW 8.1 mph - N/A   Mostly Cloudy
2:53 PM 82.0 °F 85.9 °F 70.0 °F 67% 30.02 in 10.0 mi WSW 8.1 mph - N/A   Overcast
3:53 PM 82.0 °F 85.9 °F 70.0 °F 67% 30.01 in 10.0 mi SW 8.1 mph - N/A   Partly Cloudy
4:53 PM 81.0 °F 84.4 °F 70.0 °F 69% 30.01 in 10.0 mi WSW 5.8 mph - N/A   Overcast
5:13 PM 80.6 °F 84.6 °F 71.6 °F 74% 30.00 in 10.0 mi SW 5.8 mph - N/A   Overcast
5:53 PM 81.0 °F 84.4 °F 70.0 °F 69% 30.01 in 10.0 mi SSE 8.1 mph - N/A   Overcast
6:53 PM 79.0 °F - 70.0 °F 74% 30.03 in 10.0 mi South 5.8 mph - N/A   Overcast
7:53 PM 79.0 °F - 71.1 °F 77% 30.05 in 10.0 mi SE 9.2 mph - N/A   Mostly Cloudy
8:13 PM 78.8 °F - 71.6 °F 78% 30.05 in 10.0 mi SE 11.5 mph - N/A   Mostly Cloudy
8:22 PM 78.8 °F - 71.6 °F 78% 30.06 in 10.0 mi SE 10.4 mph - N/A   Mostly Cloudy
8:33 PM 78.8 °F - 71.6 °F 78% 30.06 in 10.0 mi SE 10.4 mph - N/A   Mostly Cloudy
8:53 PM 78.1 °F - 71.1 °F 79% 30.06 in 10.0 mi SE 10.4 mph - N/A   Mostly Cloudy
9:53 PM 77.0 °F - 70.0 °F 79% 30.08 in 10.0 mi SE 9.2 mph - N/A   Clear
10:53 PM 77.0 °F - 70.0 °F 79% 30.09 in 10.0 mi ESE 9.2 mph - N/A   Mostly Cloudy
11:53 PM 77.0 °F - 69.1 °F 76% 30.07 in 10.0 mi ESE 9.2 mph - N/A   Scattered Clouds